Flag for Nepal Weather past 2 weeks in Pokhara, Nepal

Now
70 °F

Fog.


Feels Like: 70 °F
Forecast: 66 / 89 °F
Wind: 2 mph from North

Location: Kathmandu Airport

Current Time: May 23, 2015 at 8:01:48 AM

Latest Report: May 23, 2015 at 7:35 AM


Visibility: 3 mi

Pressure: 29.83 "Hg

Humidity: 73%

Dew point: 61 °F

Location of PokharaLocation

Historic Weather in Pokhara — Graph

°F

Pokhara temperature yesterday

Maximum temperature yesterday: 88 °F (at 1:35 PM)
Minimum temperature yesterday: 63 °F (at 4:35 AM)
Average temperature yesterday: 75 °F

Past Weeks' High & Low Weather Summary

 TemperatureHumidityPressure
High88 °F (May 22, 1:35 PM)100% (May 10, 2:35 AM)30.09 "Hg (May 10, 2:35 AM)
Low61 °F (May 12, 5:35 AM)31% (May 22, 1:35 PM)29.74 "Hg (May 22, 2:35 PM)
Average73 °F71%29.93 "Hg
* Reported May 8 6:35 AM — May 23 6:35 AM, Pokhara, Weather by CustomWeather, © 2015

Note: Actual official high and low records may vary slightly from our data, if they occured in-between our weather recording intervals... More about our weather records

Advertising

Pokhara weather history for previous 24 hours

 ConditionsComfort  
Time TempWeatherWind HumidityBarometerVisibility
6:35 AM
Sat, May 23
66 °FFog.2 mph83%29.80 "Hg3 mi
5:35 AM64 °FPassing clouds.3 mph83%29.80 "Hg4 mi
3:35 AM66 °FPassing clouds.No wind83%29.77 "Hg4 mi
2:35 AM66 °FPassing clouds.No wind83%29.77 "Hg4 mi
1:35 AM66 °FPassing clouds.No wind83%29.77 "Hg4 mi
12:35 AM68 °FPassing clouds.3 mph78%29.80 "Hg4 mi
11:35 PM
Fri, May 22
70 °FPassing clouds.No wind78%29.80 "Hg4 mi
10:35 PM73 °FPassing clouds.No wind69%29.83 "Hg4 mi
9:35 PM75 °FPassing clouds.3 mph61%29.83 "Hg4 mi
8:35 PM79 °FPassing clouds.5 mph54%29.80 "Hg4 mi
7:35 PM79 °FPassing clouds.5 mph51%29.77 "Hg5 mi
6:35 PM81 °FPassing clouds.12 mph48%29.74 "HgN/A
3:35 PM86 °FPassing clouds.12 mph40%29.74 "HgN/A
2:35 PM88 °FPassing clouds.7 mph33%29.74 "HgN/A
1:35 PM88 °FPassing clouds.8 mph31%29.77 "HgN/A
12:35 PM86 °FPassing clouds.6 mph38%29.80 "Hg5 mi
11:35 AM84 °FPassing clouds.3 mph40%29.83 "Hg5 mi
10:35 AM82 °FPassing clouds.3 mph42%29.83 "Hg4 mi
9:35 AM79 °FPassing clouds.3 mph54%29.83 "Hg4 mi
8:35 AM75 °FPassing clouds.3 mph57%29.83 "Hg4 mi
Weather by CustomWeather, © 2015

See weather overviewHow to use our weather pages